Spencer, IA

3:07 PM CST on February 25, 2017 (GMT -0600)
Spencer Municipal

Weather History for KSPW - October, 2011

Change the Weather History Date:

Wednesday, October 12, 2011

  Actual Average Record
Temperature  
Mean Temperature 56 °F -  
Max Temperature 66 °F 61 °F 89 °F (1975)
Min Temperature 46 °F 37 °F 19 °F (2012)
Degree Days  
Heating Degree Days 9    
Growing Degree Days 6 (Base 50)    
Moisture  
Dew Point 52 °F    
Average Humidity 83    
Maximum Humidity 97    
Minimum Humidity 70    
Precipitation  
Precipitation 0.32 in - - ()
Sea Level Pressure  
Sea Level Pressure 29.73 in    
Wind  
Wind Speed 7 mph (North)    
Max Wind Speed 30 mph    
Max Gust Speed 38 mph    
Visibility 9 miles    
Events Rain , Thunderstorm    
Averages and records for this station are not official NWS values.
T = Trace of Precipitation, MM = Missing Value Source: NWS Daily Summary

Daily Weather History Graph

Daily Weather History Graph

Search for Another Location

Airport or City:

Trip Planner

Search our weather history database for the weather conditions in past years. The results will help you decide how hot, cold, wet, or windy it might be!

Date:

Astronomy

Oct. 12, 2011 Rise Set
Actual Time 7:30 AM CDT 6:43 PM CDT
Civil Twilight 7:02 AM CDT 7:11 PM CDT
Nautical Twilight 6:29 AM CDT 7:44 PM CDT
Astronomical Twilight 5:56 AM CDT 8:17 PM CDT
Moon 6:42 PM CDT (10/12) 8:09 AM CDT (10/12)
Length of Visible Light 12h 09m
Length of Day
11h 12m
Full, 100% of the Moon is Illuminated
Oct 12
Full
Oct 19
Last Quarter
Oct 26
New
Nov 2
First Quarter
Nov 10
Full

Hourly Weather History & Observations

Time (CDT) Temp. Dew Point Humidity Pressure Visibility Wind Dir Wind Speed Gust Speed Precip Events Conditions
12:02 AM 60.8 °F 53.6 °F 77% 29.77 in 10.0 mi SE 8.1 mph - N/A Thunderstorm Thunderstorm
12:27 AM 60.8 °F 53.6 °F 77% 29.77 in 10.0 mi SE 9.2 mph - N/A   Overcast
12:53 AM 61.0 °F 52.0 °F 72% 29.76 in 10.0 mi SE 8.1 mph - N/A   Overcast
2:53 AM 55.9 °F 51.1 °F 84% 29.74 in 10.0 mi SE 3.5 mph - N/A   Mostly Cloudy
3:53 AM 57.0 °F 52.0 °F 83% 29.74 in 10.0 mi ESE 4.6 mph - N/A   Mostly Cloudy
4:53 AM 55.0 °F 52.0 °F 89% 29.72 in 10.0 mi East 3.5 mph - 0.00 in Rain Light Rain
5:53 AM 55.0 °F 51.1 °F 86% 29.72 in 10.0 mi ESE 3.5 mph - 0.00 in   Clear
6:53 AM 54.0 °F 51.1 °F 90% 29.73 in 10.0 mi ESE 4.6 mph - N/A   Partly Cloudy
7:53 AM 54.0 °F 51.1 °F 90% 29.72 in 10.0 mi Calm Calm - N/A   Mostly Cloudy
8:53 AM 57.0 °F 52.0 °F 83% 29.74 in 10.0 mi Calm Calm - N/A   Mostly Cloudy
10:53 AM 57.9 °F 55.0 °F 90% 29.74 in 2.5 mi Calm Calm - 0.03 in Rain Light Rain
11:01 AM 57.2 °F 53.6 °F 88% 29.74 in 4.0 mi Calm Calm - 0.01 in Rain Light Rain
11:53 AM 59.0 °F 54.0 °F 83% 29.73 in 10.0 mi ENE 4.6 mph - 0.03 in   Overcast
12:53 PM 60.1 °F 55.0 °F 83% 29.74 in 6.0 mi NW 4.6 mph - N/A   Haze
1:53 PM 60.1 °F 55.9 °F 86% 29.72 in 6.0 mi North 4.6 mph - 0.01 in Rain Light Rain
2:53 PM 64.0 °F 57.0 °F 78% 29.69 in 10.0 mi North 6.9 mph - 0.00 in   Mostly Cloudy
3:53 PM 63.0 °F 55.0 °F 75% 29.69 in 10.0 mi NNW 6.9 mph - N/A   Mostly Cloudy
4:05 PM 62.6 °F 55.4 °F 77% 29.69 in 10.0 mi NNW 5.8 mph - N/A   Mostly Cloudy
4:17 PM 64.4 °F 55.4 °F 73% 29.69 in 10.0 mi North 6.9 mph - N/A   Scattered Clouds
4:53 PM 64.0 °F 54.0 °F 70% 29.69 in 10.0 mi NNW 10.4 mph - N/A   Mostly Cloudy
5:53 PM 62.1 °F 55.0 °F 78% 29.70 in 10.0 mi NNE 8.1 mph - N/A Thunderstorm Mostly Cloudy
6:08 PM 60.8 °F 55.4 °F 82% 29.71 in 10.0 mi North 6.9 mph - N/A   Mostly Cloudy
6:35 PM 59.0 °F 51.8 °F 77% 29.73 in 10.0 mi NW 15.0 mph 20.7 mph 0.00 in Rain Light Rain
6:40 PM 55.4 °F 51.8 °F 88% 29.74 in 1.8 mi NNW 29.9 mph 38.0 mph 0.15 in Rain Rain
6:49 PM 55.4 °F 51.8 °F 88% 29.73 in 2.0 mi North 13.8 mph 26.5 mph 0.21 in Rain Heavy Rain
6:53 PM 55.0 °F 50.0 °F 83% 29.73 in 4.0 mi North 13.8 mph 21.9 mph 0.22 in Rain Rain
7:53 PM 55.0 °F 51.1 °F 86% 29.72 in 10.0 mi WNW 8.1 mph - 0.03 in   Mostly Cloudy
8:53 PM 52.0 °F 48.9 °F 89% 29.73 in 10.0 mi NW 5.8 mph - N/A   Clear
9:53 PM 50.0 °F 48.0 °F 93% 29.74 in 10.0 mi NW 4.6 mph - N/A   Clear
10:53 PM 48.9 °F 46.9 °F 93% 29.74 in 10.0 mi WNW 4.6 mph - N/A   Clear
11:53 PM 46.9 °F 46.0 °F 97% 29.75 in 10.0 mi WNW 4.6 mph - N/A   Clear